Location: Düngen
(52.0952°N, 10.0219°E)
Time: 04:14:25
(UTC+00:00)

MOS 1-B - Visible Passes

Search period start: 06 June 2026 00:00
Search period end: 16 June 2026 00:00
Orbit: 904 x 911 km, 99.2° (Epoch: 5 June)

Date Brightness Start Highest point End Pass type
(mag) Time Alt. Az. Time Alt. Az. Time Alt. Az.
6 Jun 6.0 21:18:21 10° SSW 21:23:14 28° W 21:28:10 10° NW visible
7 Jun 6.1 21:23:19 10° SSW 21:28:04 26° W 21:32:51 10° NW visible
8 Jun 6.2 21:28:19 10° SW 21:32:54 24° W 21:37:31 10° NW visible
9 Jun 6.3 21:33:20 10° SW 21:37:44 22° W 21:42:10 10° NW visible
10 Jun 6.4 21:38:22 10° SW 21:42:34 20° W 21:46:49 10° NW visible
11 Jun 6.5 21:43:25 10° SW 21:47:25 19° W 21:51:26 10° NW visible
12 Jun 6.6 21:48:30 10° SW 21:52:16 17° W 21:56:02 10° NW visible
13 Jun 6.6 21:53:38 10° WSW 21:57:07 16° W 22:00:36 10° NW visible
14 Jun 6.6 21:58:48 10° WSW 22:01:58 15° W 22:05:09 10° NW visible
15 Jun 6.7 22:04:01 10° WSW 22:06:49 14° W 22:09:37 10° NW visible
